Regional Weather Roundup
Issued by NWS

Home | Current Version | Previous Version | Graphics & Text | Print | Product List | Glossary On
Versions: 1 2 3 4 5 6 7 8 9 10 11 12 13 14 15 16 17 18 19 20 21 22 23 24 25 26
000
ASUS45 KSLC 121610
RWRUT

UTAH REGIONAL WEATHER ROUNDUP
NATIONAL WEATHER SERVICE SALT LAKE CITY UT
900 AM MST TUE DEC 12 2017

UTZ001>011-023>025-121700-

NORTHERN UTAH

CITY           SKY/WX    TMP DP  RH WIND       PRES   REMARKS
BRIGHAM CITY   CLOUDY    24  22  91 CALM      30.61F VSB 1/4
DUGWAY         SUNNY     12   8  84 SE1       30.60R
HILL AFB       FOG       22  20  93 CALM      30.57S VSB 1/4
LOGAN          HAZE      19  12  74 CALM      30.61S VSB 1/4
OGDEN          CLOUDY    25  21  85 E3        30.59S FOG
SALT LAKE CITY SNOW      24  22  91 CALM      30.61R VSB 1/4
TOOELE VALLEY  CLOUDY    18  16  93 CALM      30.62R FOG
WENDOVER       FOG       13  11  92 CALM      30.61S VSB<1/4
HEBER CITY       N/A     21  14  73 CALM      30.54F
WEST JORDAN    CLOUDY   N/A N/A N/A CALM      30.60R VSB<1/4

$$

UTZ011>015-024>027-121700-

CENTRAL/NORTHEAST UTAH

CITY           SKY/WX    TMP DP  RH WIND       PRES   REMARKS
PROVO AIRPORT  CLOUDY    20  17  88 CALM      30.60R VSB 1/4
MOAB/CANYONLAN PTSUNNY   26   4  38 CALM      30.53R
DELTA          CLOUDY    18  10  73 CALM      30.58R
PRICE          MOSUNNY   36   7  29 CALM      30.51R
RICHFIELD      SUNNY     16   1  53 CALM      30.57S
ROOSEVELT      CLOUDY    23  10  58 CALM      30.60S
VERNAL         CLOUDY    25  10  53 CALM      30.57R

$$

UTZ013>016-019>022-027-121700-

SOUTHERN UTAH

CITY           SKY/WX    TMP DP  RH WIND       PRES   REMARKS
BRYCE CANYON   MOSUNNY   25   1  35 W8        30.55S WCI  16
CEDAR CITY     PTSUNNY   25   7  46 CALM      30.51S
MILFORD        PTSUNNY   14   6  70 S5        30.55S WCI   6
ST GEORGE      MOSUNNY   30   6  36 N3        30.49R
HANKSVILLE     PTSUNNY   21   0  39 CALM      30.58R
KANAB          SUNNY     39   1  20 NE7       30.51S WCI  34
BLANDING         N/A     34   4  27 CALM      30.59S

$$

REGIONAL REPORTS     COLORADO/ARIZONA

CITY           SKY/WX    TMP DP  RH WIND       PRES   REMARKS
CRAIG, CO      CLOUDY    15   9  76 NW3       30.54S
GRAND JUNCTION CLOUDY    31   7  36 E3        30.53S
RIFLE, CO      CLOUDY    27  11  51 E3        30.57S
MONTROSE, CO   CLOUDY    29  11  47 SE3       30.58R
CORTEZ, CO     CLOUDY    26   5  40 NE3       30.52S
COLORADO CITY    N/A     28  -4  24 CALM      30.49S
PAGE, AZ       PTSUNNY   33   9  36 CALM      30.52R
GRAND CANYON   MOSUNNY   33  -7  17 CALM      30.48R
KINGMAN, AZ    MOSUNNY   46   0  14 NE6       30.37R
FLAGSTAFF, AZ  MOSUNNY   41  -1  17 E7        30.47R

$$

REGIONAL REPORTS    NEVADA/IDAHO/WYOMING

CITY           SKY/WX    TMP DP  RH WIND       PRES   REMARKS
LAS VEGAS, NV  SUNNY     46   0  14 CALM      30.38R
ELY, NY        PTSUNNY   18  -2  41 S16       30.54S WCI   3
ELKO, NV       CLOUDY    10   6  84 CALM      30.59R
POCATELLO, ID  PTCLDY    16  12  86 SW5       30.57S FOG     WCI   9
BURLEY, ID     SNOW      20  16  84 CALM      30.58S VSB 1/4
FORT BRIDGER,    N/A     40  10  29 W8        30.53R WCI  35
EVANSTON, WY   CLOUDY    34  12  40 S5        30.52R WCI  30
ROCK SPRINGS,  CLOUDY    29  10  45 CALM      30.49R

$$




USA.gov is the U.S. government's official web portal to all federal, state and local government web resources and services.